This is the latest recevied weather packets stored in our database for station/object KQ4KX. If no packets are shown the sender has not sent any weather packets the latest 10 day(s).
| Time | Temp. | Humidity | Pressure | Rain* | Wind** | Luminosity | Snow |
|---|---|---|---|---|---|---|---|
| 1788629886 | 32.22° C | 71% | 1013.6 hPa | 0 mm | - | - | - |
| 1788629560 | 32.78° C | 72% | 1013.7 hPa | 0 mm | - | - | - |
| 1788629225 | 32.78° C | 71% | 1013.9 hPa | 0 mm | - | - | - |
| 1788628595 | 32.78° C | 71% | 1013.9 hPa | 0 mm | - | - | - |
| 1788627995 | 32.78° C | 71% | 1014.2 hPa | 0 mm | - | - | - |
| 1788627695 | 33.33° C | 71% | 1014.4 hPa | 0 mm | - | - | - |
| 1788627065 | 33.33° C | 73% | 1014.4 hPa | 0 mm | - | - | - |
| 1788627001 | 27.78° C | 93% | 1015.3 hPa | 0 mm | - | - | - |
| 1788626997 | 27.78° C | 93% | 1015.3 hPa | 0 mm | - | - | - |
| 1788626765 | 32.78° C | 72% | 1014.6 hPa | 0 mm | - | - | - |
| 1788626435 | 32.78° C | 74% | 1014.7 hPa | 0 mm | - | - | - |
| 1788626105 | 32.22° C | 74% | 1014.7 hPa | 0 mm | - | - | - |
| 1788625805 | 31.67° C | 75% | 1014.8 hPa | 0 mm | - | - | - |
| 1788625507 | 31.11° C | 78% | 1014.9 hPa | 0 mm | - | - | - |
| 1788625175 | 31.11° C | 77% | 1015 hPa | 0 mm | - | - | - |
| 1788624875 | 31.11° C | 78% | 1014.9 hPa | 0 mm | - | - | - |
| 1788624785 | 31.11° C | 78% | 1014.8 hPa | 0 mm | - | - | - |
| 1788624575 | 31.11° C | 78% | 1014.8 hPa | 0 mm | - | - | - |
| 1788624470 | 31.11° C | 79% | 1014.9 hPa | 0 mm | - | - | - |
| 1788624275 | 31.11° C | 79% | 1014.9 hPa | 0 mm | - | - | - |
| 1788623975 | 31.11° C | 80% | 1015 hPa | 0 mm | - | - | - |
| 1788623645 | 31.11° C | 78% | 1015 hPa | 0 mm | - | - | - |
| 1788623518 | 31.11° C | 78% | 1015 hPa | 0 mm | - | - | - |
| 1788623345 | 31.11° C | 78% | 1015 hPa | 0 mm | - | - | - |
| 1788622385 | 30.56° C | 80% | 1015.2 hPa | 0 mm | - | - | - |
* Rain latest hour (hover to see other rain measurements)
** Current wind speed in m/s (hover to see current wind gust speed)